DW9864 Weather Reports


Display with metric or nautical units.
time (UTC)temp
F
wind
direction
speed
MPH
gust
MPH
rain 1hr
in
rain 24hr
in
rain mn
in
humidity
%
barometer
mb
20240527145504 62 162 3.0 6.0 0.00 0.00 0.00 71 1017.9
20240527145005 62 159 3.0 6.0 0.00 0.00 0.00 72 1017.9
20240527144505 62 145 2.0 6.0 0.00 0.00 0.00 71 1017.9
20240527144004 62 196 2.0 5.0 0.00 0.00 0.00 70 1017.9
20240527143504 62 190 2.0 5.0 0.00 0.00 0.00 71 1017.9
20240527143004 63 142 2.0 7.0 0.00 0.00 0.00 70 1017.9
20240527142505 62 156 3.0 7.0 0.00 0.00 0.00 71 1017.9
20240527142004 62 195 2.0 7.0 0.00 0.00 0.00 71 1018.0
20240527141504 62 186 3.0 7.0 0.00 0.00 0.00 71 1018.1
20240527141005 62 155 3.0 6.0 0.00 0.00 0.00 71 1018.1
20240527140505 62 155 2.0 6.0 0.00 0.00 0.00 71 1018.1
20240527140004 62 178 1.0 5.0 0.00 0.00 0.00 71 1018.1
20240527135504 62 185 2.0 10.0 0.00 0.00 0.00 71 1018.1
20240527135004 62 144 2.0 10.0 0.00 0.00 0.00 72 1018.1
20240527134505 62 130 2.0 6.0 0.00 0.00 0.00 72 1018.0
20240527134026 61 153 2.0 6.0 0.00 0.00 0.00 72 1018.1
20240527133504 61 143 2.0 6.0 0.00 0.00 0.00 73 1018.1
20240527133004 62 139 3.0 7.0 0.00 0.00 0.00 73 1018.1
20240527132526 61 155 3.0 8.0 0.00 0.00 0.00 73 1018.0
20240527132005 61 148 3.0 8.0 0.00 0.00 0.00 74 1018.0
20240527131504 61 131 2.0 5.0 0.00 0.00 0.00 74 1018.0
20240527131025 61 135 2.0 5.0 0.00 0.00 0.00 74 1018.0
20240527130505 61 155 3.0 6.0 0.00 0.00 0.00 75 1018.0
20240527130005 60 163 3.0 6.0 0.00 0.00 0.00 76 1018.0
20240527125504 60 170 3.0 6.0 0.00 0.00 0.00 76 1018.0
20240527125004 60 169 2.0 6.0 0.00 0.00 0.00 77 1018.0
20240527124504 60 148 2.0 6.0 0.00 0.00 0.00 78 1017.9
20240527124004 60 132 2.0 6.0 0.00 0.00 0.00 78 1018.0
20240527123526 60 121 2.0 6.0 0.00 0.00 0.00 78 1017.9
20240527123004 60 125 2.0 7.0 0.00 0.00 0.00 78 1018.0
20240527122504 60 162 2.0 7.0 0.00 0.00 0.00 77 1018.0
20240527122026 60 182 2.0 5.0 0.00 0.00 0.00 77 1018.0
20240527121505 60 177 2.0 5.0 0.00 0.00 0.00 77 1018.0
20240527121026 61 160 2.0 3.0 0.00 0.00 0.00 76 1018.1
20240527120505 61 137 2.0 4.0 0.00 0.00 0.00 77 1018.0
20240527120005 61 148 2.0 5.0 0.00 0.00 0.00 78 1018.0
20240527115505 61 131 2.0 5.0 0.00 0.00 0.00 78 1018.0
20240527115005 61 91 1.0 3.0 0.00 0.00 0.00 78 1018.0
20240527114505 61 111 1.0 3.0 0.00 0.00 0.00 78 1018.0
20240527114005 60 155 1.0 5.0 0.00 0.00 0.00 79 1017.9
20240527113505 60 148 1.0 5.0 0.00 0.00 0.00 80 1017.9
20240527113005 60 133 1.0 4.0 0.00 0.00 0.00 80 1017.9
20240527112504 60 127 1.0 3.0 0.00 0.00 0.00 80 1018.0
20240527112004 60 103 1.0 3.0 0.00 0.00 0.00 80 1018.0
20240527111504 60 77 1.0 4.0 0.00 0.00 0.00 78 1018.1
20240527111025 60 93 2.0 7.0 0.00 0.00 0.00 77 1018.0
20240527110505 61 110 1.0 7.0 0.00 0.00 0.00 77 1018.0
20240527110004 61 125 1.0 4.0 0.00 0.00 0.00 76 1018.0
20240527105505 61 109 1.0 4.0 0.00 0.00 0.00 76 1018.1
20240527105005 61 106 1.0 3.0 0.00 0.00 0.00 76 1018.1
20240527104505 61 116 1.0 5.0 0.00 0.00 0.00 76 1018.0
20240527104005 61 109 1.0 5.0 0.00 0.00 0.00 76 1017.9
20240527103505 61 80 2.0 4.0 0.00 0.00 0.00 76 1017.9
20240527103004 61 66 2.0 4.0 0.00 0.00 0.00 76 1017.9
20240527102505 61 109 2.0 4.0 0.00 0.01 0.00 76 1017.9
20240527102005 61 131 2.0 4.0 0.00 0.01 0.00 76 1017.8
20240527101504 61 129 2.0 4.0 0.00 0.01 0.00 75 1017.9
20240527101005 61 132 1.0 6.0 0.00 0.01 0.00 76 1017.8
20240527100504 61 133 1.0 6.0 0.00 0.01 0.00 76 1017.8
20240527100026 60 105 1.0 4.0 0.00 0.01 0.00 77 1017.8
20240527095504 60 120 2.0 5.0 0.00 0.01 0.00 77 1017.8
20240527095004 60 127 2.0 5.0 0.00 0.01 0.00 77 1017.8
20240527094505 60 106 1.0 8.0 0.00 0.01 0.00 77 1017.8
20240527094005 60 109 2.0 8.0 0.00 0.01 0.00 77 1017.8
20240527093504 60 105 1.0 5.0 0.00 0.01 0.00 78 1017.8
20240527093004 60 83 1.0 5.0 0.00 0.01 0.00 78 1017.8
20240527092505 60 97 1.0 3.0 0.00 0.02 0.00 78 1017.7
20240527092025 60 103 1.0 5.0 0.00 0.02 0.00 79 1017.7
20240527091505 60 107 1.0 5.0 0.00 0.02 0.00 79 1017.7
20240527091005 60 116 1.0 4.0 0.00 0.03 0.00 79 1017.7
20240527090504 60 121 1.0 4.0 0.00 0.05 0.00 79 1017.7
20240527090004 60 134 1.0 3.0 0.00 0.06 0.00 79 1017.7
20240527085505 60 153 1.0 3.0 0.00 0.06 0.00 79 1017.7
20240527085005 60 154 1.0 3.0 0.00 0.06 0.00 79 1017.7
20240527084504 60 138 2.0 4.0 0.00 0.06 0.00 80 1017.6
20240527084004 60 136 2.0 4.0 0.00 0.06 0.00 79 1017.6
20240527083504 60 118 2.0 3.0 0.00 0.06 0.00 79 1017.5
20240527083005 60 74 2.0 4.0 0.00 0.06 0.00 79 1017.6
20240527082505 60 115 2.0 4.0 0.00 0.06 0.00 79 1017.6
20240527082005 60 136 2.0 4.0 0.00 0.06 0.00 80 1017.5
20240527081525 60 139 1.0 3.0 0.00 0.06 0.00 80 1017.6
20240527081004 60 139 1.0 3.0 0.00 0.06 0.00 80 1017.5
20240527080504 60 129 1.0 6.0 0.00 0.06 0.00 80 1017.5
20240527080004 60 141 2.0 6.0 0.00 0.06 0.00 79 1017.5
20240527075504 60 146 1.0 4.0 0.00 0.06 0.00 80 1017.5
20240527075025 60 75 1.0 3.0 0.00 0.06 0.00 80 1017.5
20240527074504 60 88 1.0 4.0 0.00 0.06 0.00 80 1017.4
20240527074005 60 104 1.0 4.0 0.00 0.06 0.00 81 1017.4
20240527073505 60 108 1.0 3.0 0.00 0.06 0.00 81 1017.4
20240527073026 59 88 0.0 2.0 0.00 0.06 0.00 81 1017.3
20240527072505 59 80 0.0 2.0 0.00 0.06 0.00 82 1017.2
20240527072005 59 89 0.0 1.0 0.00 0.06 0.00 82 1017.1
20240527071505 59 95 1.0 2.0 0.00 0.06 0.00 82 1017.1
20240527071025 59 116 1.0 3.0 0.00 0.06 0.00 82 1017.1
20240527070504 59 145 1.0 3.0 0.00 0.06 0.00 83 1017.1
20240527070005 59 152 1.0 3.0 0.00 0.06 0.00 83 1017.0
20240527065505 59 145 1.0 3.0 0.00 0.06 0.00 83 1016.9
20240527065025 59 123 0.0 2.0 0.00 0.06 0.00 83 1017.0
20240527064504 59 122 0.0 3.0 0.00 0.06 0.00 84 1017.0
20240527064005 59 123 1.0 3.0 0.00 0.06 0.00 83 1016.8
20240527063525 59 123 0.0 2.0 0.00 0.06 0.00 83 1016.9
20240527063026 58 124 0.0 3.0 0.00 0.06 0.00 84 1016.8
20240527062504 58 124 0.0 3.0 0.00 0.06 0.00 84 1016.8
20240527062004 58 124 0.0 2.0 0.00 0.06 0.00 84 1016.7
20240527061504 58 118 1.0 2.0 0.00 0.06 0.00 85 1016.6
20240527061005 58 134 1.0 2.0 0.00 0.06 0.00 85 1016.6
20240527060504 58 173 1.0 3.0 0.00 0.06 0.00 86 1016.6
20240527060004 58 196 1.0 3.0 0.00 0.06 0.00 85 1016.6
20240527055504 58 158 1.0 4.0 0.00 0.06 0.00 85 1016.6
20240527055026 58 120 1.0 5.0 0.00 0.06 0.00 85 1016.6
20240527054505 59 96 1.0 5.0 0.00 0.06 0.00 85 1016.5
20240527054025 59 105 1.0 4.0 0.00 0.06 0.00 84 1016.4
20240527053505 59 111 1.0 6.0 0.00 0.06 0.00 84 1016.4
20240527053005 59 121 1.0 6.0 0.00 0.06 0.00 84 1016.3
20240527052505 59 128 1.0 2.0 0.00 0.06 0.00 84 1016.3
20240527052005 59 96 1.0 2.0 0.00 0.06 0.00 84 1016.2
20240527051504 59 103 1.0 3.0 0.00 0.06 0.00 84 1016.3
20240527051004 58 110 1.0 4.0 0.00 0.06 0.00 84 1016.3
20240527050504 58 129 1.0 4.0 0.00 0.06 0.00 84 1016.3
20240527050005 58 164 1.0 3.0 0.00 0.06 0.00 84 1016.2
20240527045526 58 157 1.0 3.0 0.00 0.06 0.00 84 1016.2
20240527045025 58 141 0.0 3.0 0.00 0.06 0.00 85 1016.2
20240527044504 58 102 1.0 3.0 0.00 0.06 0.00 85 1016.2
20240527044025 58 68 1.0 3.0 0.00 0.06 0.00 85 1016.2
20240527043504 58 69 1.0 3.0 0.00 0.06 0.00 85 1016.1
20240527043005 58 92 1.0 4.0 0.00 0.06 0.00 85 1016.1
20240527042505 58 113 1.0 6.0 0.00 0.06 0.00 85 1016.1
20240527042004 58 105 1.0 6.0 0.00 0.06 0.00 86 1016.0
20240527041526 58 44 0.0 1.0 0.00 0.06 0.00 87 1015.9
20240527041005 58 327 0.0 2.0 0.00 0.06 0.00 87 1015.8
20240527040525 58 319 0.0 2.0 0.00 0.06 0.00 88 1015.9
20240527040004 58 319 0.0 2.0 0.00 0.06 0.00 88 1015.8
20240527035525 58 319 0.0 2.0 0.00 0.06 0.00 88 1015.8
20240527035004 58 0 0.0 0.0 0.00 0.06 0.00 88 1015.8
20240527034504 58 0 0.0 0.0 0.00 0.06 0.00 88 1015.6
20240527034005 58 0 0.0 0.0 0.00 0.06 0.00 88 1015.6
20240527033504 58 0 0.0 0.0 0.00 0.06 0.00 88 1015.7
20240527033005 58 0 0.0 0.0 0.00 0.06 0.00 88 1015.8
20240527032505 58 0 0.0 0.0 0.00 0.06 0.00 88 1015.8
20240527032005 58 0 0.0 0.0 0.00 0.06 0.00 88 1015.8
20240527031504 58 0 0.0 0.0 0.00 0.06 0.00 88 1015.8
20240527031005 58 0 0.0 0.0 0.00 0.06 0.00 88 1015.8
20240527030505 58 0 0.0 0.0 0.00 0.06 0.00 88 1015.8
20240527030004 58 0 0.0 0.0 0.00 0.06 0.00 88 1015.8
20240527025526 58 0 0.0 0.0 0.00 0.06 0.00 88 1015.8
20240527025004 58 0 0.0 0.0 0.00 0.06 0.00 88 1015.7
20240527024504 58 0 0.0 0.0 0.00 0.06 0.00 88 1015.8
20240527024004 58 0 0.0 0.0 0.00 0.06 0.00 88 1015.8
20240527023505 58 0 0.0 0.0 0.00 0.06 0.00 88 1015.8
20240527023005 58 0 0.0 0.0 0.00 0.06 0.00 88 1015.7
20240527022504 58 0 0.0 0.0 0.00 0.06 0.00 88 1015.7
20240527022004 58 0 0.0 0.0 0.00 0.06 0.00 88 1015.6
20240527021504 58 0 0.0 0.0 0.00 0.06 0.00 88 1015.7
20240527021026 58 0 0.0 0.0 0.00 0.06 0.00 88 1015.6
20240527020504 58 0 0.0 0.0 0.00 0.06 0.00 88 1015.7
20240527020025 58 0 0.0 0.0 0.00 0.06 0.00 88 1015.7
20240527015505 58 0 0.0 0.0 0.00 0.06 0.00 88 1015.7
20240527015005 58 0 0.0 0.0 0.00 0.06 0.00 88 1015.7
20240527014504 58 0 0.0 0.0 0.00 0.06 0.00 88 1015.7
20240527014026 58 0 0.0 0.0 0.00 0.06 0.00 88 1015.8
20240527013505 58 0 0.0 0.0 0.00 0.06 0.00 88 1015.7
20240527013004 58 0 0.0 0.0 0.00 0.06 0.00 88 1015.8
20240527012504 58 0 0.0 0.0 0.00 0.06 0.00 88 1015.8
20240527012025 58 319 0.0 2.0 0.00 0.06 0.00 87 1015.8
20240527011504 58 319 0.0 2.0 0.00 0.06 0.00 87 1015.9
20240527011005 58 319 0.0 2.0 0.00 0.06 0.00 87 1016.0
20240527010504 58 319 0.0 2.0 0.00 0.06 0.00 87 1016.0
20240527010004 58 317 0.0 3.0 0.00 0.06 0.00 87 1016.0
20240527005504 58 317 0.0 3.0 0.00 0.06 0.00 87 1016.1
20240527005004 58 0 0.0 0.0 0.00 0.06 0.00 87 1016.2
20240527004505 58 0 0.0 0.0 0.00 0.06 0.00 87 1016.3
20240527004005 58 180 0.0 1.0 0.00 0.06 0.00 87 1016.4
20240527003504 58 180 0.0 1.0 0.00 0.06 0.00 86 1016.4
20240527003004 58 180 0.0 1.0 0.00 0.06 0.00 86 1016.5
20240527002504 58 180 0.0 2.0 0.00 0.06 0.00 86 1016.5
20240527002005 58 182 0.0 2.0 0.00 0.06 0.00 85 1016.4
20240527001504 58 184 0.0 2.0 0.00 0.06 0.00 85 1016.4
20240527001026 58 184 1.0 2.0 0.00 0.06 0.00 85 1016.5
20240527000505 58 184 0.0 2.0 0.00 0.06 0.00 85 1016.5
20240527000005 58 184 0.0 1.0 0.00 0.06 0.00 85 1016.5
20240526235504 58 184 0.0 1.0 0.00 0.06 0.00 86 1016.4
20240526235004 58 0 0.0 0.0 0.00 0.06 0.00 86 1016.5
20240526234505 58 0 0.0 0.0 0.00 0.06 0.00 86 1016.5
20240526234004 58 0 0.0 0.0 0.00 0.06 0.00 86 1016.6
20240526233504 58 0 0.0 0.0 0.00 0.06 0.00 86 1016.6
20240526233004 59 0 0.0 0.0 0.00 0.06 0.00 86 1016.5
20240526232504 59 0 0.0 0.0 0.00 0.06 0.00 86 1016.6
20240526232004 59 0 0.0 0.0 0.00 0.06 0.00 86 1016.7
20240526231505 59 0 0.0 0.0 0.00 0.06 0.00 86 1016.6
20240526231004 59 0 0.0 0.0 0.00 0.06 0.00 86 1016.6
20240526230526 59 0 0.0 0.0 0.00 0.06 0.00 86 1016.7
20240526230005 59 0 0.0 0.0 0.00 0.06 0.00 86 1016.8
20240526225525 59 0 0.0 0.0 0.00 0.06 0.00 86 1016.7
20240526225004 59 0 0.0 0.0 0.00 0.06 0.00 86 1016.7
20240526224504 59 0 0.0 0.0 0.00 0.06 0.00 86 1016.7
20240526224005 59 0 0.0 0.0 0.00 0.06 0.00 86 1016.6
20240526223504 59 0 0.0 0.0 0.00 0.06 0.00 86 1016.6
20240526223005 59 0 0.0 0.0 0.00 0.06 0.00 86 1016.8
20240526222525 59 0 0.0 0.0 0.00 0.06 0.00 86 1016.8
20240526222005 59 0 0.0 0.0 0.00 0.06 0.00 86 1016.9
20240526221504 59 0 0.0 0.0 0.00 0.06 0.00 86 1016.9
20240526221005 59 0 0.0 0.0 0.00 0.06 0.00 86 1016.9
20240526220504 59 0 0.0 0.0 0.00 0.06 0.00 86 1016.9
20240526220006 59 0 0.0 0.0 0.00 0.06 0.00 86 1017.0
20240526215505 59 0 0.0 0.0 0.00 0.06 0.06 86 1017.0
20240526215004 59 0 0.0 0.0 0.00 0.06 0.06 86 1017.0
20240526214505 59 309 0.0 1.0 0.00 0.06 0.06 86 1017.0
20240526214005 59 309 0.0 2.0 0.00 0.06 0.06 86 1017.1
20240526213504 59 309 0.0 2.0 0.00 0.06 0.06 86 1017.1
20240526213005 59 309 0.0 1.0 0.00 0.06 0.06 86 1017.1
20240526212505 59 309 0.0 1.0 0.00 0.06 0.06 86 1017.1
20240526212005 59 309 0.0 2.0 0.00 0.06 0.06 86 1017.0
20240526211525 59 309 0.0 2.0 0.00 0.06 0.06 86 1017.1
20240526211004 59 309 0.0 2.0 0.00 0.06 0.06 86 1017.1
20240526210504 59 311 0.0 2.0 0.00 0.06 0.06 86 1017.1
20240526210004 59 311 1.0 3.0 0.00 0.06 0.06 86 1017.0
20240526205504 59 295 1.0 3.0 0.00 0.06 0.06 86 1017.0
20240526205005 59 163 1.0 3.0 0.00 0.06 0.06 86 1017.0
20240526204525 59 153 1.0 3.0 0.00 0.06 0.06 85 1016.9
20240526204005 59 153 0.0 1.0 0.00 0.06 0.06 86 1016.9
20240526203505 59 153 0.0 1.0 0.00 0.06 0.06 85 1016.9
20240526203005 59 153 0.0 1.0 0.00 0.06 0.06 85 1016.9
20240526202504 59 153 0.0 1.0 0.00 0.06 0.06 84 1017.0
20240526202005 59 153 0.0 2.0 0.00 0.06 0.06 85 1017.0
20240526201505 59 152 0.0 3.0 0.00 0.06 0.06 85 1016.9
20240526201005 59 152 0.0 3.0 0.00 0.06 0.06 84 1016.8
20240526200505 59 152 0.0 1.0 0.00 0.06 0.06 84 1016.7
20240526200004 59 152 0.0 1.0 0.00 0.06 0.06 84 1016.7
20240526195526 59 152 0.0 2.0 0.00 0.06 0.06 84 1016.6
20240526195026 59 152 1.0 2.0 0.00 0.06 0.06 84 1016.5
20240526194504 59 152 1.0 2.0 0.00 0.06 0.06 84 1016.5
20240526194025 59 152 0.0 2.0 0.00 0.06 0.06 84 1016.5
20240526193526 59 160 0.0 4.0 0.00 0.06 0.06 83 1016.5
20240526193004 59 181 1.0 4.0 0.00 0.06 0.06 83 1016.5
20240526192505 59 212 1.0 2.0 0.00 0.06 0.06 83 1016.5
20240526192025 59 237 1.0 2.0 0.00 0.06 0.06 84 1016.5
20240526191504 60 185 1.0 2.0 0.00 0.06 0.06 84 1016.6
20240526191004 60 197 1.0 2.0 0.00 0.06 0.06 85 1016.5
20240526190526 60 296 1.0 2.0 0.00 0.06 0.06 84 1016.5
20240526190005 60 78 1.0 2.0 0.00 0.06 0.06 85 1016.4
20240526185504 60 53 1.0 3.0 0.00 0.06 0.06 83 1016.3
20240526185004 60 12 1.0 3.0 0.00 0.06 0.06 82 1016.3
20240526184505 60 109 1.0 3.0 0.00 0.06 0.06 83 1016.3
20240526184004 60 141 1.0 3.0 0.00 0.06 0.06 82 1016.3
20240526183505 60 161 0.0 2.0 0.00 0.06 0.06 82 1016.3
20240526183025 60 204 1.0 3.0 0.00 0.06 0.06 82 1016.3
20240526182504 60 204 1.0 3.0 0.00 0.06 0.06 82 1016.3
20240526182005 60 143 1.0 2.0 0.00 0.06 0.06 82 1016.3
20240526181505 61 121 1.0 3.0 0.00 0.06 0.06 81 1016.2
20240526181004 61 107 1.0 3.0 0.00 0.06 0.06 81 1016.3
20240526180526 61 92 0.0 2.0 0.00 0.06 0.06 80 1016.2
20240526180004 61 92 1.0 2.0 0.00 0.06 0.06 80 1016.2
20240526175504 61 84 1.0 2.0 0.00 0.06 0.06 80 1016.2
20240526175004 61 74 1.0 2.0 0.00 0.06 0.06 80 1016.1
20240526174504 61 26 1.0 2.0 0.00 0.06 0.06 81 1016.1
20240526174004 61 355 0.0 2.0 0.00 0.06 0.06 81 1016.1
20240526173505 61 323 1.0 4.0 0.00 0.06 0.06 81 1016.0
20240526173005 61 264 1.0 4.0 0.00 0.06 0.06 81 1016.0
20240526172505 61 191 0.0 2.0 0.00 0.06 0.06 81 1016.0
20240526172005 61 188 0.0 2.0 0.00 0.06 0.06 82 1015.9
20240526171504 61 199 1.0 2.0 0.00 0.06 0.06 82 1015.9
20240526171004 61 262 0.0 2.0 0.00 0.06 0.06 82 1015.8
20240526170525 61 302 0.0 2.0 0.00 0.06 0.06 82 1015.8
20240526170026 61 88 0.0 2.0 0.00 0.06 0.06 82 1015.8
20240526165504 61 156 1.0 4.0 0.00 0.06 0.06 83 1015.7
20240526165025 61 155 1.0 4.0 0.00 0.06 0.06 83 1015.7
20240526164504 62 214 1.0 3.0 0.00 0.06 0.06 83 1015.7
20240526164004 62 125 1.0 3.0 0.00 0.06 0.06 83 1015.7
20240526163505 62 109 1.0 3.0 0.00 0.06 0.06 83 1015.6
20240526163025 62 96 1.0 2.0 0.00 0.06 0.06 83 1015.6
20240526162505 62 54 1.0 5.0 0.00 0.06 0.06 83 1015.6
20240526162025 62 338 1.0 5.0 0.00 0.06 0.06 82 1015.6
20240526161505 62 338 1.0 6.0 0.00 0.06 0.06 82 1015.6
20240526161005 62 310 1.0 6.0 0.00 0.06 0.06 82 1015.6
20240526160504 62 310 1.0 4.0 0.00 0.06 0.06 83 1015.6
20240526160025 62 319 1.0 4.0 0.00 0.06 0.06 82 1015.6
20240526155505 62 269 1.0 4.0 0.00 0.06 0.06 82 1015.5
20240526155004 62 338 1.0 6.0 0.00 0.06 0.06 82 1015.5
20240526154505 62 23 1.0 6.0 0.00 0.06 0.06 82 1015.5
20240526154004 62 48 1.0 4.0 0.00 0.06 0.06 83 1015.5
20240526153505 62 78 1.0 3.0 0.00 0.06 0.06 83 1015.5
20240526153004 61 121 1.0 3.0 0.00 0.06 0.06 84 1015.5
20240526152504 61 10 2.0 7.0 0.00 0.06 0.06 84 1015.5
20240526152005 61 350 2.0 7.0 0.00 0.06 0.06 83 1015.5
20240526151504 61 10 1.0 7.0 0.00 0.06 0.06 84 1015.6
20240526151005 61 26 1.0 5.0 0.00 0.06 0.06 85 1015.5
20240526150504 61 146 2.0 4.0 0.00 0.06 0.06 85 1015.6
20240526150004 61 129 2.0 4.0 0.00 0.06 0.06 85 1015.7